GW0172 Weather Reports


time (UTC)temp
F
wind
direction
speed
knots
gust
knots
rain 1hr
in
rain 24hr
in
rain mn
in
humidity
%
barometer
mb
20220627211035 80 308 1.7 3.5 0.00 0.00 0.00 34 1023.7
20220627210534 81 291 0.9 2.6 0.00 0.00 0.00 34 1023.6
20220627210033 81 278 0.0 0.9 0.00 0.00 0.00 35 1023.6
20220627205532 80 309 1.7 3.5 0.00 0.00 0.00 34 1023.7
20220627205031 81 270 0.0 2.6 0.00 0.00 0.00 35 1023.7
20220627204530 81 307 0.0 1.7 0.00 0.00 0.00 38 1023.8
20220627204030 81 262 1.7 2.6 0.00 0.00 0.00 32 1023.8
20220627203530 81 253 0.0 1.7 0.00 0.00 0.00 39 1023.8
20220627203029 81 209 0.0 0.9 0.00 0.00 0.00 38 1023.8
20220627202529 80 270 0.0 1.7 0.00 0.00 0.00 41 1024.0
20220627202027 79 177 0.0 2.6 0.00 0.00 0.00 38 1024.0
20220627201525 80 5 0.0 2.6 0.00 0.00 0.00 36 1023.8
20220627201023 79 289 0.0 3.5 0.00 0.00 0.00 43 1023.9
20220627200522 80 307 0.0 1.7 0.00 0.00 0.00 36 1023.8
20220627200021 79 270 1.7 1.7 0.00 0.00 0.00 41 1024.1
20220627195520 80 270 0.9 1.7 0.00 0.00 0.00 39 1024.1
20220627195020 79 337 0.0 4.3 0.00 0.00 0.00 36 1024.0
20220627194519 79 157 0.0 1.7 0.00 0.00 0.00 40 1024.3
20220627194018 79 279 0.9 1.7 0.00 0.00 0.00 42 1024.3
20220627193518 78 274 2.6 2.6 0.00 0.00 0.00 36 1024.3
20220627193017 78 286 0.0 2.6 0.00 0.00 0.00 36 1024.5
20220627192516 79 290 1.7 2.6 0.00 0.00 0.00 36 1024.3
20220627192015 80 281 1.7 1.7 0.00 0.00 0.00 36 1024.5
20220627191513 79 270 0.9 2.6 0.00 0.00 0.00 37 1024.4
20220627191012 78 257 1.7 2.6 0.00 0.00 0.00 39 1024.5
20220627190511 78 276 0.0 1.7 0.00 0.00 0.00 37 1024.6
20220627190010 78 5 1.7 2.6 0.00 0.00 0.00 38 1024.5
20220627185509 78 294 1.7 4.3 0.00 0.00 0.00 37 1024.6
20220627185009 78 350 1.7 2.6 0.00 0.00 0.00 38 1024.7
20220627184510 77 7 0.0 2.6 0.00 0.00 0.00 40 1024.7
20220627184009 78 356 1.7 2.6 0.00 0.00 0.00 40 1024.5
20220627183509 78 323 0.0 1.7 0.00 0.00 0.00 39 1024.8
20220627183008 77 285 2.6 3.5 0.00 0.00 0.00 41 1024.8
20220627182507 78 297 0.9 2.6 0.00 0.00 0.00 43 1024.7
20220627182006 77 273 2.6 3.5 0.00 0.00 0.00 41 1025.0
20220627181506 77 355 0.0 1.7 0.00 0.00 0.00 41 1025.2
20220627181005 77 7 0.0 2.6 0.00 0.00 0.00 43 1025.1
20220627180504 77 270 1.7 2.6 0.00 0.00 0.00 41 1025.0
20220627180004 76 270 0.0 0.9 0.00 0.00 0.00 39 1025.3
20220627175502 76 355 0.9 1.7 0.00 0.00 0.00 42 1025.2
20220627175001 76 15 0.9 2.6 0.00 0.00 0.00 44 1025.3
20220627174500 76 326 1.7 2.6 0.00 0.00 0.00 41 1025.2
20220627173959 76 254 1.7 1.7 0.00 0.00 0.00 43 1025.3
20220627173459 76 0 0.0 1.7 0.00 0.00 0.00 45 1025.1
20220627172959 75 286 0.0 4.3 0.00 0.00 0.00 43 1025.2
20220627172458 76 254 0.9 3.5 0.00 0.00 0.00 43 1025.5
20220627171956 75 333 0.0 3.5 0.00 0.00 0.00 45 1025.5
20220627171455 75 331 0.9 1.7 0.00 0.00 0.00 43 1025.5
20220627170954 75 353 0.0 0.0 0.00 0.00 0.00 44 1025.4
20220627170454 75 297 0.9 2.6 0.00 0.00 0.00 43 1025.6
20220627165953 74 11 0.0 2.6 0.00 0.00 0.00 45 1025.6
20220627165451 74 18 0.0 1.7 0.00 0.00 0.00 51 1025.8
20220627164950 74 342 0.9 2.6 0.00 0.00 0.00 45 1025.6
20220627164450 74 328 0.0 1.7 0.00 0.00 0.00 45 1025.7
20220627163949 74 281 0.0 3.5 0.00 0.00 0.00 45 1025.5
20220627163448 73 81 0.0 1.7 0.00 0.00 0.00 45 1025.5
20220627162947 73 288 4.3 5.2 0.00 0.00 0.00 46 1025.7
20220627162448 73 352 0.0 2.6 0.00 0.00 0.00 48 1025.7
20220627161947 73 270 0.0 1.7 0.00 0.00 0.00 46 1025.6
20220627161446 73 270 0.0 2.6 0.00 0.00 0.00 46 1025.6
20220627160945 72 349 0.0 1.7 0.00 0.00 0.00 48 1025.5
20220627160443 72 330 0.0 1.7 0.00 0.00 0.00 48 1025.7
20220627155942 72 270 1.7 2.6 0.00 0.00 0.00 47 1025.8
20220627155441 72 352 0.0 1.7 0.00 0.00 0.00 51 1025.7
20220627154940 72 294 0.0 2.6 0.00 0.00 0.00 47 1025.7
20220627154439 71 349 1.7 1.7 0.00 0.00 0.00 49 1025.8
20220627153939 71 255 1.7 2.6 0.00 0.00 0.00 48 1025.8
20220627153437 71 352 0.0 1.7 0.00 0.00 0.00 48 1025.8
20220627152936 71 285 0.9 3.5 0.00 0.00 0.00 51 1025.8
20220627152436 71 280 2.6 3.5 0.00 0.00 0.00 51 1026.0
20220627151936 70 315 1.7 1.7 0.00 0.00 0.00 48 1025.7
20220627151435 70 289 0.9 1.7 0.00 0.00 0.00 47 1025.7
20220627150934 70 330 2.6 2.6 0.00 0.00 0.00 52 1025.8
20220627150432 70 290 1.7 2.6 0.00 0.00 0.00 48 1025.9
20220627145931 70 356 1.7 1.7 0.00 0.00 0.00 53 1025.9
20220627145431 69 341 0.0 1.7 0.00 0.00 0.00 48 1025.8
20220627144930 69 318 2.6 2.6 0.00 0.00 0.00 49 1026.0
20220627144429 69 277 3.5 3.5 0.00 0.00 0.00 49 1026.0
20220627143928 69 322 1.7 1.7 0.00 0.00 0.00 52 1026.0
20220627143427 68 307 0.0 4.3 0.00 0.00 0.00 50 1025.9
20220627142926 68 249 0.0 0.0 0.00 0.00 0.00 57 1026.0
20220627142424 68 145 0.0 1.7 0.00 0.00 0.00 57 1026.0
20220627141924 67 300 0.0 1.7 0.00 0.00 0.00 56 1025.8
20220627141423 67 263 0.0 0.9 0.00 0.00 0.00 55 1025.9
20220627140923 67 173 0.0 0.9 0.00 0.00 0.00 57 1025.9
20220627140422 67 274 1.7 2.6 0.00 0.00 0.00 61 1026.0
20220627135920 66 106 0.0 0.0 0.00 0.00 0.00 61 1025.7
20220627135420 65 175 0.9 3.5 0.00 0.00 0.00 62 1025.9
20220627134920 65 270 0.0 1.7 0.00 0.00 0.00 62 1026.0
20220627134419 64 278 0.9 2.6 0.00 0.00 0.00 61 1025.9
20220627133918 64 285 0.0 1.7 0.00 0.00 0.00 62 1026.0
20220627133418 64 109 0.9 1.7 0.00 0.00 0.00 64 1025.9
20220627132918 63 277 0.0 2.6 0.00 0.00 0.00 67 1025.8
20220627132416 62 151 0.0 0.9 0.00 0.00 0.00 70 1025.7
20220627131915 62 180 0.0 0.0 0.00 0.00 0.00 72 1025.8
20220627131414 61 157 0.0 2.6 0.00 0.00 0.00 73 1025.8
20220627130914 61 203 0.0 1.7 0.00 0.00 0.00 74 1025.6
20220627130413 60 165 0.0 0.9 0.00 0.00 0.00 75 1025.8
20220627125912 60 175 0.9 1.7 0.00 0.00 0.00 77 1025.7
20220627125410 59 160 0.0 1.7 0.00 0.00 0.00 77 1025.7
20220627124909 59 170 1.7 1.7 0.00 0.00 0.00 77 1025.6
20220627124407 58 120 0.0 0.0 0.00 0.00 0.00 78 1025.6
20220627123907 58 157 0.0 0.0 0.00 0.00 0.00 80 1025.5
20220627123408 57 157 0.0 1.7 0.00 0.00 0.00 79 1025.5
20220627122907 57 123 0.0 0.0 0.00 0.00 0.00 80 1025.6
20220627122407 56 106 0.0 0.9 0.00 0.00 0.00 81 1025.6
20220627121906 55 90 0.0 0.0 0.00 0.00 0.00 82 1025.5
20220627121405 55 120 0.0 0.9 0.00 0.00 0.00 83 1025.5
20220627120905 54 99 0.0 0.0 0.00 0.00 0.00 84 1025.5
20220627120403 54 81 0.0 0.0 0.00 0.00 0.00 86 1025.4
20220627115902 53 120 0.0 0.9 0.00 0.00 0.00 87 1025.3
20220627115401 53 99 0.0 0.9 0.00 0.00 0.00 87 1025.6
20220627114901 52 111 0.9 0.9 0.00 0.00 0.00 87 1025.3
20220627114400 52 114 0.9 1.7 0.00 0.00 0.00 88 1025.5
20220627113900 52 114 0.0 1.7 0.00 0.00 0.00 88 1025.4
20220627113359 52 106 0.0 0.9 0.00 0.00 0.00 88 1025.6
20220627112859 52 106 0.0 0.9 0.00 0.00 0.00 87 1025.5
20220627112358 51 106 0.0 0.9 0.00 0.00 0.00 87 1025.5
20220627111857 51 99 0.0 0.0 0.00 0.00 0.00 87 1025.4
20220627111356 51 127 0.0 1.7 0.00 0.00 0.00 88 1025.4
20220627110856 51 151 0.0 1.7 0.00 0.00 0.00 88 1025.5
20220627110356 51 90 0.0 0.9 0.00 0.00 0.00 87 1025.3
20220627105855 51 114 0.0 0.9 0.00 0.00 0.00 88 1025.4
20220627105354 51 140 0.0 1.7 0.00 0.00 0.00 87 1025.2
20220627104854 51 151 0.9 1.7 0.00 0.00 0.00 87 1025.2
20220627104352 51 151 0.0 1.7 0.00 0.00 0.00 87 1025.1
20220627103851 51 120 0.0 1.7 0.00 0.00 0.00 87 1025.1
20220627103350 52 144 0.0 1.7 0.00 0.00 0.00 86 1025.1
20220627102850 52 152 1.7 1.7 0.00 0.00 0.00 85 1025.0
20220627102349 52 145 0.0 1.7 0.00 0.00 0.00 84 1025.1
20220627101847 53 114 0.9 0.9 0.00 0.00 0.00 85 1025.2
20220627101346 53 98 0.0 0.9 0.00 0.00 0.00 85 1025.0
20220627100846 53 114 0.0 0.9 0.00 0.00 0.00 84 1025.0
20220627100345 53 135 1.7 1.7 0.00 0.00 0.00 83 1025.0
20220627095845 53 120 0.0 1.7 0.00 0.00 0.00 81 1025.2
20220627095344 54 151 0.0 1.7 0.00 0.00 0.00 79 1025.0
20220627094843 54 99 0.0 0.0 0.00 0.00 0.00 76 1025.1
20220627094343 55 120 0.0 0.9 0.00 0.00 0.00 77 1024.8
20220627093841 55 81 0.0 0.0 0.00 0.00 0.00 74 1024.8
20220627093340 55 81 0.0 0.0 0.00 0.00 0.00 76 1024.8
20220627092839 55 81 0.0 0.0 0.00 0.00 0.00 75 1024.6
20220627092338 54 81 0.0 0.0 0.00 0.00 0.00 76 1024.7
20220627091837 54 81 0.0 0.0 0.00 0.00 0.00 77 1024.4
20220627091336 53 81 0.0 0.0 0.00 0.00 0.00 80 1024.5
20220627090834 53 90 0.0 0.0 0.00 0.00 0.00 81 1024.6
20220627090332 53 90 0.0 0.9 0.00 0.00 0.00 84 1024.6
20220627085832 53 82 0.0 0.9 0.00 0.00 0.00 84 1024.5
20220627085331 53 90 0.0 0.0 0.00 0.00 0.00 85 1024.5
20220627084831 52 90 0.0 0.0 0.00 0.00 0.00 83 1024.6
20220627084329 52 90 0.0 0.9 0.00 0.00 0.00 83 1024.3
20220627083828 52 114 0.0 0.0 0.00 0.00 0.00 83 1024.3
20220627083327 53 114 0.0 0.0 0.00 0.00 0.00 84 1024.3
20220627082825 53 90 0.0 0.9 0.00 0.00 0.00 82 1024.5
20220627082324 53 75 0.0 0.0 0.00 0.00 0.00 81 1024.3
20220627081824 53 99 0.0 0.9 0.00 0.00 0.00 81 1024.3
20220627081323 53 135 0.0 1.7 0.00 0.00 0.00 80 1024.4
20220627080823 54 126 0.0 1.7 0.00 0.00 0.00 79 1024.5
20220627080322 54 151 0.0 0.9 0.00 0.00 0.00 78 1024.4
20220627075821 54 145 0.0 1.7 0.00 0.00 0.00 77 1024.3
20220627075320 54 90 0.9 0.9 0.00 0.00 0.00 76 1024.5
20220627074819 54 114 0.0 0.0 0.00 0.00 0.00 76 1024.3
20220627074317 55 74 0.0 0.0 0.00 0.00 0.00 79 1024.4
20220627073817 55 74 0.9 0.9 0.00 0.00 0.00 78 1024.2
20220627073316 55 29 0.0 0.9 0.00 0.00 0.00 75 1024.3
20220627072816 55 90 0.0 0.0 0.00 0.00 0.00 76 1024.4
20220627072314 55 114 0.0 0.0 0.00 0.00 0.00 74 1024.3
20220627071813 55 90 0.0 0.0 0.00 0.00 0.00 76 1024.2
20220627071312 55 255 0.0 0.0 0.00 0.00 0.00 74 1024.3
20220627070811 55 255 0.0 0.0 0.00 0.00 0.00 73 1024.2
20220627070311 55 255 0.0 0.0 0.00 0.00 0.00 72 1024.3
20220627065810 56 255 0.0 0.0 0.00 0.00 0.00 70 1024.4
20220627065309 56 255 0.0 0.0 0.00 0.00 0.00 69 1024.5
20220627064808 56 255 0.0 0.9 0.00 0.00 0.00 70 1024.4
20220627064307 56 327 0.0 0.0 0.00 0.00 0.00 72 1024.5
20220627063807 56 327 0.0 0.0 0.00 0.00 0.00 71 1024.4
20220627063306 56 327 0.0 0.0 0.00 0.00 0.00 73 1024.4
20220627062805 56 327 0.0 0.0 0.00 0.00 0.00 71 1024.5
20220627062304 56 327 0.0 0.0 0.00 0.00 0.00 69 1024.3
20220627061801 56 327 0.0 0.0 0.00 0.00 0.00 70 1024.4
20220627061300 56 327 0.0 0.0 0.00 0.00 0.00 69 1024.2
20220627060759 56 327 0.0 0.0 0.00 0.00 0.00 70 1024.3
20220627060257 56 327 0.0 0.0 0.00 0.00 0.00 75 1024.4
20220627055756 56 327 0.0 0.0 0.00 0.00 0.00 75 1024.2
20220627055255 56 327 0.0 0.0 0.00 0.00 0.00 77 1024.2
20220627054754 55 327 0.0 0.0 0.00 0.00 0.00 74 1024.6
20220627054253 55 327 0.0 0.0 0.00 0.00 0.00 75 1024.4
20220627053752 56 327 0.0 0.0 0.00 0.00 0.00 75 1024.3
20220627053251 56 327 0.0 0.0 0.00 0.00 0.00 76 1024.2
20220627052750 56 327 0.0 0.0 0.00 0.00 0.00 76 1024.2
20220627052249 56 327 0.0 0.0 0.00 0.00 0.00 75 1024.2
20220627051749 56 327 0.0 0.0 0.00 0.00 0.00 74 1024.3
20220627051247 57 327 0.0 0.0 0.00 0.00 0.00 72 1024.1
20220627050746 57 327 0.0 0.0 0.00 0.00 0.00 73 1024.1
20220627050244 57 327 0.0 0.0 0.00 0.00 0.00 74 1024.2
20220627045743 57 327 0.0 0.0 0.00 0.00 0.00 71 1024.1
20220627045242 57 327 0.0 0.0 0.00 0.00 0.00 73 1024.2
20220627044741 57 327 0.0 0.0 0.00 0.00 0.00 69 1024.1
20220627044240 58 327 0.0 0.0 0.00 0.00 0.00 67 1024.1
20220627043740 58 327 0.0 0.0 0.00 0.00 0.00 67 1024.1
20220627043237 58 327 0.0 0.0 0.00 0.00 0.00 67 1023.9
20220627042736 58 327 0.0 0.0 0.00 0.00 0.00 65 1024.0
20220627042235 58 327 0.0 0.0 0.00 0.00 0.00 65 1024.0
20220627041734 59 327 0.0 0.0 0.00 0.00 0.00 64 1024.1
20220627041234 59 327 0.0 0.0 0.00 0.00 0.00 61 1023.9
20220627040734 60 327 0.0 0.0 0.00 0.00 0.00 60 1024.1
20220627040234 60 327 0.0 0.0 0.00 0.00 0.00 60 1023.9
20220627035734 60 327 0.0 0.0 0.00 0.00 0.00 62 1024.0
20220627035233 61 327 0.0 0.0 0.00 0.00 0.00 61 1024.1
20220627034732 61 327 0.0 0.0 0.00 0.00 0.00 64 1023.9
20220627034231 61 327 0.0 0.0 0.00 0.00 0.00 60 1023.9
20220627033731 62 327 0.0 0.0 0.00 0.00 0.00 55 1023.8
20220627033229 62 327 0.0 0.0 0.00 0.00 0.00 57 1023.9
20220627032728 62 327 0.0 0.0 0.00 0.00 0.00 52 1023.7
20220627032226 62 327 0.0 0.0 0.00 0.00 0.00 52 1023.7
20220627031725 63 327 0.0 0.0 0.00 0.00 0.00 52 1023.8
20220627031225 63 327 0.0 0.0 0.00 0.00 0.00 51 1023.7
20220627030724 63 327 0.0 0.0 0.00 0.00 0.00 51 1023.7
20220627030222 64 327 0.0 0.0 0.00 0.00 0.00 49 1023.6
20220627025721 64 327 0.0 1.7 0.00 0.00 0.00 50 1023.6
20220627025220 64 14 0.0 0.0 0.00 0.00 0.00 49 1023.5
20220627024720 64 14 0.0 0.0 0.00 0.00 0.00 48 1023.4
20220627024220 64 353 0.0 1.7 0.00 0.00 0.00 49 1023.3
20220627023720 65 355 0.0 1.7 0.00 0.00 0.00 49 1023.2
20220627023218 65 352 0.0 1.7 0.00 0.00 0.00 48 1023.2
20220627022717 65 0 0.0 0.0 0.00 0.00 0.00 49 1023.0
20220627022215 65 283 0.0 0.9 0.00 0.00 0.00 48 1023.0
20220627021713 66 345 0.0 1.7 0.00 0.00 0.00 48 1022.9
20220627021212 66 319 0.0 1.7 0.00 0.00 0.00 48 1022.8
20220627020711 66 66 0.0 1.7 0.00 0.00 0.00 47 1022.8
20220627020209 66 300 0.0 0.9 0.00 0.00 0.00 46 1022.8
20220627015708 67 8 0.0 1.7 0.00 0.00 0.00 45 1022.7
20220627015206 67 289 0.0 1.7 0.00 0.00 0.00 45 1022.4
20220627014706 67 4 0.0 2.6 0.00 0.00 0.00 45 1022.6
20220627014205 68 240 1.7 1.7 0.00 0.00 0.00 45 1022.5
20220627013704 68 306 0.0 1.7 0.00 0.00 0.00 43 1022.5
20220627013203 69 342 0.0 2.6 0.00 0.00 0.00 44 1022.4
20220627012702 69 354 0.9 2.6 0.00 0.00 0.00 44 1022.2
20220627012200 69 297 1.7 2.6 0.00 0.00 0.00 42 1022.3
20220627011659 69 270 0.9 2.6 0.00 0.00 0.00 41 1021.9
20220627011158 69 18 2.6 2.6 0.00 0.00 0.00 40 1022.2
20220627010657 69 297 1.7 4.3 0.00 0.00 0.00 40 1022.1
20220627010156 70 285 0.9 2.6 0.00 0.00 0.00 40 1021.9
20220627005655 70 342 0.9 2.6 0.00 0.00 0.00 40 1021.9
20220627005155 70 307 1.7 3.5 0.00 0.00 0.00 41 1021.8
20220627004654 70 279 3.5 6.1 0.00 0.00 0.00 39 1021.8
20220627004151 70 277 2.6 3.5 0.00 0.00 0.00 40 1021.9
20220627003649 70 324 1.7 4.3 0.00 0.00 0.00 40 1021.8
20220627003149 71 350 0.0 4.3 0.00 0.00 0.00 39 1021.8
20220627002649 71 33 1.7 3.5 0.00 0.00 0.00 40 1021.6
20220627002148 71 333 2.6 5.2 0.00 0.00 0.00 38 1021.7
20220627001648 71 307 1.7 4.3 0.00 0.00 0.00 39 1021.7
20220627001147 71 297 1.7 4.3 0.00 0.00 0.00 40 1021.6
20220627000646 71 282 1.7 5.2 0.00 0.00 0.00 39 1021.6
20220627000144 71 274 1.7 3.5 0.00 0.00 0.00 40 1021.7
20220626235642 71 282 6.1 7.8 0.00 0.00 0.00 38 1021.8
20220626235141 72 273 2.6 5.2 0.00 0.00 0.00 39 1021.4
20220626234640 72 297 0.0 3.5 0.00 0.00 0.00 41 1021.6
20220626234140 72 320 2.6 5.2 0.00 0.00 0.00 37 1021.7
20220626233639 72 292 2.6 4.3 0.00 0.00 0.00 38 1021.7
20220626233138 72 289 4.3 7.8 0.00 0.00 0.00 38 1021.5
20220626232637 72 298 3.5 7.0 0.00 0.00 0.00 36 1021.6
20220626232136 73 319 1.7 3.5 0.00 0.00 0.00 38 1021.6
20220626231634 73 282 2.6 6.1 0.00 0.00 0.00 37 1021.7
20220626231134 73 315 1.7 2.6 0.00 0.00 0.00 37 1021.5
20220626230633 73 317 3.5 6.1 0.00 0.00 0.00 38 1021.6
20220626230132 72 285 0.9 3.5 0.00 0.00 0.00 41 1021.7
20220626225631 72 328 2.6 4.3 0.00 0.00 0.00 38 1021.6
20220626225130 72 293 5.2 5.2 0.00 0.00 0.00 39 1021.6
20220626224629 72 320 2.6 6.1 0.00 0.00 0.00 40 1021.6
20220626224130 72 270 3.5 6.1 0.00 0.00 0.00 42 1021.7
20220626223628 72 0 1.7 4.3 0.00 0.00 0.00 40 1021.8
20220626223127 72 284 0.0 6.1 0.00 0.00 0.00 40 1021.7
20220626222627 71 0 0.9 4.3 0.00 0.00 0.00 42 1021.7
20220626222125 72 294 4.3 4.3 0.00 0.00 0.00 40 1022.1
20220626221624 72 250 2.6 7.0 0.00 0.00 0.00 40 1022.1
20220626221123 72 282 4.3 6.1 0.00 0.00 0.00 38 1021.9
20220626220622 72 314 3.5 4.3 0.00 0.00 0.00 43 1022.1
20220626220120 72 289 2.6 4.3 0.00 0.00 0.00 42 1021.9
20220626215619 73 286 2.6 4.3 0.00 0.00 0.00 45 1022.2
20220626215118 72 272 3.5 7.8 0.00 0.00 0.00 41 1022.2
20220626214618 73 281 1.7 6.1 0.00 0.00 0.00 40 1022.2
20220626214117 72 294 3.5 4.3 0.00 0.00 0.00 41 1022.3
20220626213617 72 3 2.6 4.3 0.00 0.00 0.00 42 1022.1
20220626213117 73 304 2.6 5.2 0.00 0.00 0.00 42 1022.3
20220626212615 71 294 4.3 7.0 0.00 0.00 0.00 41 1022.3
20220626212113 72 331 4.3 8.7 0.00 0.00 0.00 41 1022.2
20220626211613 72 321 2.6 9.6 0.00 0.00 0.00 41 1022.4